Location: Six Mile Lake
(44.9000°N, 79.7170°W)
Time: 20:16:14
(UTC-04:00)

AAUSAT CUBESAT 2 - Pass Details

Date: 06 July 2022
Orbit: 566 x 580 km, 97.5° (Epoch: 07 August)

Event Time Altitude Azimuth Distance (km) Brightness Sun altitude
Rises 04:50:50 0° 35° (NE) 2,782 ? -7.6°
Reaches altitude 10° 04:54:40 10° 72° (ENE) 1,880 ? -7.1°
Maximum altitude 04:55:48 11° 89° (E) 1,816 ? -6.9°
Drops below altitude 10° 04:56:55 10° 105° (ESE) 1,878 ? -6.8°
Sets 05:00:43 0° 142° (SE) 2,772 ? -6.3°
